Tracking 18840 objects as of 19-November-2017
HD Live streaming from Space Station
objects crossing your sky now

FENGYUN 1C DEB

Track FENGYUN 1C DEB now!
10-day predictions


NORAD ID: 29943
Int'l Code: 1999-025JR
Perigee: 844.0 km
Apogee: 894.5 km
Inclination: 99.0 °
Period: 102.2 minutes
Semi major axis: 7240 km
RCS: 0.1614 m2 (medium)
Launch date: May 10, 1999
Source: People's Republic of China (PRC)
Launch site: Taiyaun Space Center, China (TSC)

Note: This is SATELLITE DEBRIS
aabbcc
Your satellite tracking list
Your tracking list is empty




NASA's NSSDC Master Catalog

Two Line Element Set (TLE):
1 29943U 99025JR  17322.57378907 +.00000002 +00000-0 +26583-4 0  9993
2 29943 098.9722 345.3861 0034891 257.2245 218.2418 14.09191277558081
Source of the keplerian elements: AFSPC